Location: ????????
(55.0559°N, 39.1270°E)
Time: 00:15:09
(UTC+00:00)

Cosmos 1954 Rocket - Pass Details

Date: 15 November 2025
Orbit: 749 x 776 km, 74.0° (Epoch: 12 December)

Event Time Altitude Azimuth Distance (km) Brightness Sun altitude
Exits shadow 02:07:30 64° 248° (WSW) 839 3.9 -23.7°
Drops below altitude 10° 02:12:34 10° 168° (SSE) 2,270 6.6 -23.0°
Sets 02:14:56 0° 166° (SSE) 3,188 7.4 -22.7°
